When you browse on this site, cookies collect data to enhance your experience and personalize the content and advertising you see.
Visit our Privacy Policy to learn more. By continuing to use the site, you agree to this use of cookies and data.
  • In Österreich
  • Länderverzeichnis
  • Für 7 Tage
  • Wassertemperatur
  • Satellitenkarten
  • Wetterkarte
  • News
  • Widgets
  • user-avatar
    Anmelden

    Stündliche Wetter Kalgoorlie

    Heute, 20 März, Mittwoch

    Zeit Temperatur Niederschläge Wind Luftdruck Luftfeuchtigkeit
    00:00 +30°C° 0 mm 6 m/S 727 mmHg 37%
    01:00 +29°C° 0 mm 6 m/S 727 mmHg 38%
    02:00 +28°C° 0 mm 6 m/S 727 mmHg 42%
    03:00 +28°C° 0 mm 6 m/S 728 mmHg 43%
    04:00 +28°C° 0 mm 5 m/S 728 mmHg 44%
    05:00 +27°C° 0 mm 5 m/S 728 mmHg 45%
    06:00 +28°C° 0 mm 5 m/S 728 mmHg 43%
    07:00 +29°C° 0 mm 5 m/S 728 mmHg 40%
    08:00 +29°C° 0 mm 5 m/S 729 mmHg 38%
    09:00 +32°C° 0 mm 6 m/S 729 mmHg 33%
    10:00 +34°C° 0 mm 6 m/S 729 mmHg 29%
    11:00 +36°C° 0 mm 6 m/S 729 mmHg 24%
    12:00 +37°C° 0 mm 5 m/S 728 mmHg 23%
    13:00 +37°C° 0 mm 4 m/S 727 mmHg 22%
    14:00 +38°C° 0 mm 3 m/S 727 mmHg 21%
    15:00 +38°C° 0 mm 3 m/S 727 mmHg 21%
    16:00 +37°C° 0 mm 3 m/S 727 mmHg 21%
    17:00 +37°C° 0 mm 3 m/S 727 mmHg 21%
    18:00 +37°C° 0 mm 3 m/S 727 mmHg 22%
    19:00 +36°C° 0 mm 3 m/S 727 mmHg 24%
    20:00 +36°C° 0 mm 3 m/S 727 mmHg 25%
    21:00 +35°C° 0 mm 4 m/S 727 mmHg 27%
    22:00 +34°C° 0 mm 5 m/S 727 mmHg 29%
    23:00 +34°C° 0 mm 6 m/S 727 mmHg 30%

    Morgen, 21 März, Donnerstag

    Zeit Temperatur Niederschläge Wind Luftdruck Luftfeuchtigkeit
    00:00 +33°C° 0 mm 6 m/S 727 mmHg 31%
    01:00 +33°C° 0 mm 7 m/S 727 mmHg 31%
    02:00 +32°C° 0 mm 7 m/S 727 mmHg 31%
    03:00 +30°C° 0.3 mm 7 m/S 727 mmHg 36%
    04:00 +28°C° 0.3 mm 7 m/S 727 mmHg 42%
    05:00 +27°C° 0.3 mm 7 m/S 727 mmHg 47%
    06:00 +28°C° 0.9 mm 7 m/S 727 mmHg 48%
    07:00 +28°C° 0.9 mm 6 m/S 728 mmHg 49%
    08:00 +28°C° 0.9 mm 6 m/S 728 mmHg 50%
    09:00 +29°C° 0.7 mm 6 m/S 728 mmHg 47%
    10:00 +30°C° 0.7 mm 6 m/S 728 mmHg 45%
    11:00 +32°C° 0.7 mm 5 m/S 728 mmHg 43%
    12:00 +30°C° 0.7 mm 6 m/S 728 mmHg 49%
    13:00 +29°C° 0.7 mm 6 m/S 728 mmHg 55%
    14:00 +27°C° 0.7 mm 7 m/S 728 mmHg 61%
    15:00 +27°C° 0.3 mm 6 m/S 728 mmHg 61%
    16:00 +27°C° 0.3 mm 6 m/S 727 mmHg 61%
    17:00 +27°C° 0.3 mm 6 m/S 727 mmHg 61%
    18:00 +26°C° 0.2 mm 5 m/S 727 mmHg 62%
    19:00 +26°C° 0.2 mm 4 m/S 727 mmHg 64%
    20:00 +25°C° 0.2 mm 4 m/S 727 mmHg 66%
    21:00 +25°C° 0 mm 3 m/S 727 mmHg 66%
    22:00 +25°C° 0 mm 2 m/S 727 mmHg 67%
    23:00 +25°C° 0 mm 1 m/S 727 mmHg 67%

    übermorgen, 22 März, Freitag

    Zeit Temperatur Niederschläge Wind Luftdruck Luftfeuchtigkeit
    00:00 +25°C° 0 mm 2 m/S 727 mmHg 68%
    01:00 +25°C° 0 mm 2 m/S 727 mmHg 70%
    02:00 +25°C° 0 mm 3 m/S 727 mmHg 71%
    03:00 +25°C° 0 mm 3 m/S 726 mmHg 71%
    04:00 +24°C° 0 mm 2 m/S 726 mmHg 71%
    05:00 +24°C° 0 mm 2 m/S 726 mmHg 72%
    06:00 +25°C° 0 mm 2 m/S 726 mmHg 67%
    07:00 +26°C° 0 mm 3 m/S 727 mmHg 62%
    08:00 +27°C° 0 mm 3 m/S 727 mmHg 57%
    09:00 +28°C° 0 mm 3 m/S 727 mmHg 51%
    10:00 +30°C° 0 mm 3 m/S 727 mmHg 45%
    11:00 +31°C° 0 mm 3 m/S 727 mmHg 39%
    12:00 +33°C° 0 mm 3 m/S 726 mmHg 36%
    13:00 +34°C° 0 mm 3 m/S 726 mmHg 33%
    14:00 +35°C° 0 mm 3 m/S 725 mmHg 30%
    15:00 +35°C° 0 mm 3 m/S 725 mmHg 32%
    16:00 +34°C° 0 mm 4 m/S 725 mmHg 35%
    17:00 +33°C° 0 mm 5 m/S 725 mmHg 37%
    18:00 +30°C° 0 mm 7 m/S 726 mmHg 46%
    19:00 +28°C° 0 mm 9 m/S 726 mmHg 55%
    20:00 +26°C° 0 mm 10 m/S 727 mmHg 65%
    21:00 +24°C° 0.1 mm 10 m/S 727 mmHg 67%
    22:00 +23°C° 0.1 mm 10 m/S 728 mmHg 70%
    23:00 +21°C° 0.1 mm 9 m/S 728 mmHg 72%

    23 März, Samstag

    Zeit Temperatur Niederschläge Wind Luftdruck Luftfeuchtigkeit
    00:00 +21°C° 0.2 mm 9 m/S 728 mmHg 73%
    01:00 +19°C° 0.2 mm 9 m/S 728 mmHg 74%
    02:00 +19°C° 0.2 mm 9 m/S 728 mmHg 74%
    03:00 +18°C° 0.2 mm 9 m/S 728 mmHg 74%
    04:00 +18°C° 0.2 mm 9 m/S 729 mmHg 74%
    05:00 +17°C° 0.2 mm 9 m/S 729 mmHg 74%
    06:00 +17°C° 0 mm 9 m/S 729 mmHg 73%
    07:00 +17°C° 0 mm 9 m/S 730 mmHg 72%
    08:00 +16°C° 0 mm 8 m/S 730 mmHg 71%
    09:00 +17°C° 0 mm 7 m/S 730 mmHg 64%
    10:00 +20°C° 0 mm 7 m/S 731 mmHg 58%
    11:00 +21°C° 0 mm 6 m/S 731 mmHg 52%
    12:00 +22°C° 0 mm 5 m/S 730 mmHg 47%
    13:00 +25°C° 0 mm 5 m/S 730 mmHg 41%
    14:00 +26°C° 0 mm 5 m/S 729 mmHg 36%
    15:00 +26°C° 0 mm 5 m/S 729 mmHg 34%
    16:00 +27°C° 0 mm 4 m/S 729 mmHg 32%
    17:00 +27°C° 0 mm 4 m/S 729 mmHg 31%
    18:00 +26°C° 0 mm 5 m/S 729 mmHg 31%
    19:00 +25°C° 0 mm 5 m/S 730 mmHg 32%
    20:00 +23°C° 0 mm 6 m/S 730 mmHg 33%
    21:00 +22°C° 0 mm 6 m/S 730 mmHg 39%
    22:00 +21°C° 0 mm 7 m/S 730 mmHg 45%
    23:00 +20°C° 0 mm 8 m/S 730 mmHg 50%

    24 März, Sonntag

    Zeit Temperatur Niederschläge Wind Luftdruck Luftfeuchtigkeit
    00:00 +18°C° 0 mm 7 m/S 730 mmHg 55%
    01:00 +17°C° 0 mm 6 m/S 730 mmHg 59%
    02:00 +16°C° 0 mm 6 m/S 730 mmHg 63%
    03:00 +16°C° 0 mm 5 m/S 730 mmHg 66%
    04:00 +15°C° 0 mm 5 m/S 730 mmHg 69%
    05:00 +15°C° 0 mm 4 m/S 730 mmHg 72%
    06:00 +15°C° 0 mm 4 m/S 730 mmHg 71%
    07:00 +15°C° 0 mm 4 m/S 731 mmHg 70%
    08:00 +17°C° 0 mm 4 m/S 731 mmHg 68%
    09:00 +18°C° 0 mm 4 m/S 731 mmHg 60%
    10:00 +20°C° 0 mm 4 m/S 731 mmHg 51%
    11:00 +21°C° 0 mm 4 m/S 731 mmHg 43%
    12:00 +23°C° 0 mm 5 m/S 730 mmHg 37%
    13:00 +25°C° 0 mm 5 m/S 730 mmHg 30%
    14:00 +26°C° 0 mm 6 m/S 729 mmHg 24%
    15:00 +26°C° 0 mm 6 m/S 729 mmHg 26%
    16:00 +26°C° 0 mm 7 m/S 729 mmHg 27%
    17:00 +26°C° 0 mm 7 m/S 730 mmHg 29%
    18:00 +24°C° 0 mm 7 m/S 730 mmHg 35%
    19:00 +22°C° 0 mm 8 m/S 731 mmHg 42%
    20:00 +21°C° 0 mm 8 m/S 731 mmHg 48%
    21:00 +20°C° 0 mm 8 m/S 731 mmHg 52%
    22:00 +18°C° 0 mm 8 m/S 731 mmHg 56%
    23:00 +18°C° 0 mm 8 m/S 732 mmHg 59%

    25 März, Montag

    Zeit Temperatur Niederschläge Wind Luftdruck Luftfeuchtigkeit
    00:00 +17°C° 0 mm 8 m/S 732 mmHg 62%
    01:00 +16°C° 0 mm 8 m/S 732 mmHg 65%
    02:00 +15°C° 0 mm 8 m/S 732 mmHg 67%
    03:00 +15°C° 0 mm 8 m/S 732 mmHg 69%
    04:00 +13°C° 0 mm 8 m/S 733 mmHg 70%
    05:00 +12°C° 0 mm 7 m/S 733 mmHg 72%
    06:00 +14°C° 0 mm 7 m/S 733 mmHg 70%
    07:00 +13°C° 0 mm 8 m/S 734 mmHg 68%
    08:00 +13°C° 0 mm 8 m/S 734 mmHg 66%
    09:00 +16°C° 0 mm 8 m/S 734 mmHg 58%
    10:00 +18°C° 0 mm 8 m/S 734 mmHg 51%
    11:00 +20°C° 0 mm 8 m/S 734 mmHg 43%
    12:00 +22°C° 0 mm 8 m/S 733 mmHg 38%
    13:00 +23°C° 0 mm 8 m/S 733 mmHg 34%
    14:00 +24°C° 0 mm 8 m/S 732 mmHg 29%
    15:00 +24°C° 0 mm 8 m/S 732 mmHg 29%
    16:00 +24°C° 0 mm 8 m/S 732 mmHg 29%
    17:00 +24°C° 0 mm 8 m/S 732 mmHg 29%
    18:00 +23°C° 0 mm 8 m/S 733 mmHg 33%
    19:00 +22°C° 0 mm 8 m/S 733 mmHg 36%
    20:00 +21°C° 0 mm 8 m/S 734 mmHg 40%
    21:00 +18°C° 0 mm 9 m/S 734 mmHg 45%
    22:00 +17°C° 0 mm 9 m/S 734 mmHg 50%
    23:00 +16°C° 0 mm 9 m/S 734 mmHg 56%
    Mehr zeigen